�������l�o���
Date,Time,MP-1(��Sv/h),MP-2(��Sv/h),MP-3(��Sv/h),MP-4(��Sv/h),MP-5(��Sv/h),MP-6(��Sv/h),MP-7(��Sv/h),MP-8(��Sv/h),����,����(m/s),���J
2023/08/31,00:00,0.556,0.843,0.514,1.048,0.762,0.330,0.590,0.543,��,1.2,��
2023/08/31,00:10,0.555,0.840,0.514,1.049,0.763,0.330,0.589,0.541,��쐼,1.1,��
2023/08/31,00:20,0.555,0.841,0.514,1.048,0.760,0.329,0.590,0.544,��,1.7,��
2023/08/31,00:30,0.555,0.842,0.514,1.051,0.763,0.330,0.590,0.542,��,1.5,��
2023/08/31,00:40,0.556,0.841,0.513,1.047,0.762,0.329,0.589,0.543,��,1.5,��
2023/08/31,00:50,0.555,0.842,0.513,1.048,0.762,0.330,0.589,0.544,��,2.0,��
2023/08/31,01:00,0.555,0.840,0.514,1.047,0.762,0.330,0.589,0.545,��,1.5,��
2023/08/31,01:10,0.554,0.841,0.513,1.047,0.762,0.328,0.589,0.545,��쐼,1.5,��
2023/08/31,01:20,0.554,0.842,0.514,1.048,0.763,0.330,0.588,0.546,��쐼,1.7,��
2023/08/31,01:30,0.556,0.841,0.515,1.047,0.761,0.330,0.590,0.542,��쐼,2.0,��
2023/08/31,01:40,0.556,0.840,0.512,1.047,0.762,0.329,0.589,0.543,��,2.5,��
2023/08/31,01:50,0.556,0.841,0.514,1.049,0.760,0.331,0.590,0.545,��,2.3,��
2023/08/31,02:00,0.556,0.841,0.514,1.048,0.763,0.330,0.589,0.544,��,2.0,��
2023/08/31,02:10,0.555,0.841,0.515,1.047,0.761,0.330,0.589,0.546,��,2.3,��
2023/08/31,02:20,0.555,0.840,0.514,1.048,0.762,0.331,0.590,0.544,��,2.3,��
2023/08/31,02:30,0.556,0.841,0.515,1.050,0.762,0.333,0.589,0.545,��,3.0,��
2023/08/31,02:40,0.556,0.840,0.514,1.048,0.763,0.331,0.589,0.547,��,2.9,��
2023/08/31,02:50,0.557,0.841,0.515,1.048,0.762,0.331,0.590,0.544,��,3.2,��
2023/08/31,03:00,0.557,0.841,0.514,1.048,0.763,0.330,0.590,0.544,��,4.3,��
2023/08/31,03:10,0.558,0.842,0.513,1.049,0.764,0.330,0.589,0.544,��,5.7,��
2023/08/31,03:20,0.556,0.840,0.515,1.046,0.762,0.330,0.588,0.545,��,6.3,��
2023/08/31,03:30,0.555,0.842,0.512,1.046,0.763,0.330,0.591,0.544,��,5.7,��
2023/08/31,03:40,0.555,0.841,0.515,1.047,0.761,0.331,0.590,0.544,��,6.1,��
2023/08/31,03:50,0.557,0.843,0.515,1.047,0.762,0.331,0.589,0.545,��,6.2,��
2023/08/31,04:00,0.556,0.840,0.515,1.047,0.760,0.329,0.590,0.544,��,5.5,��
2023/08/31,04:10,0.554,0.841,0.514,1.047,0.761,0.329,0.588,0.543,��,4.9,��
2023/08/31,04:20,0.556,0.842,0.513,1.046,0.761,0.328,0.590,0.544,��,4.6,��
2023/08/31,04:30,0.554,0.841,0.512,1.046,0.760,0.329,0.589,0.544,��,4.4,��
2023/08/31,04:40,0.554,0.842,0.514,1.048,0.760,0.329,0.590,0.543,��쐼,4.4,��
2023/08/31,04:50,0.555,0.843,0.512,1.047,0.761,0.330,0.589,0.543,��,4.7,��
2023/08/31,05:00,0.554,0.841,0.512,1.048,0.762,0.328,0.590,0.544,��,4.9,��
2023/08/31,05:10,0.555,0.842,0.515,1.046,0.762,0.330,0.588,0.544,��,5.2,��
2023/08/31,05:20,0.555,0.839,0.515,1.048,0.760,0.330,0.589,0.544,��쐼,5.5,��
2023/08/31,05:30,0.555,0.841,0.514,1.048,0.761,0.328,0.589,0.543,��쐼,5.2,��
2023/08/31,05:40,0.554,0.839,0.513,1.047,0.760,0.329,0.587,0.542,��쐼,4.4,��
2023/08/31,05:50,0.555,0.840,0.514,1.047,0.761,0.329,0.588,0.543,��,4.6,��
2023/08/31,06:00,0.554,0.841,0.514,1.046,0.760,0.329,0.589,0.543,��,4.8,��
2023/08/31,06:10,0.553,0.844,0.514,1.046,0.761,0.329,0.588,0.543,��,5.1,��
2023/08/31,06:20,0.555,0.841,0.514,1.047,0.761,0.330,0.590,0.542,��,5.8,��
2023/08/31,06:30,0.556,0.840,0.514,1.045,0.760,0.330,0.590,0.544,��,6.1,��
2023/08/31,06:40,0.556,0.839,0.515,1.045,0.761,0.329,0.589,0.544,��쓌,5.1,��
2023/08/31,06:50,0.555,0.841,0.514,1.049,0.759,0.329,0.589,0.543,��,4.9,��
2023/08/31,07:00,0.554,0.842,0.515,1.048,0.761,0.328,0.589,0.542,��,4.7,��
2023/08/31,07:10,0.557,0.839,0.513,1.048,0.758,0.330,0.587,0.543,��쓌,5.1,��
2023/08/31,07:20,0.556,0.841,0.514,1.047,0.760,0.330,0.590,0.543,��,5.6,��
2023/08/31,07:30,0.556,0.840,0.515,1.049,0.762,0.328,0.589,0.543,��,5.4,��
2023/08/31,07:40,0.556,0.839,0.514,1.048,0.760,0.330,0.590,0.543,��,5.4,��
2023/08/31,07:50,0.557,0.841,0.513,1.050,0.758,0.329,0.589,0.543,��쓌,7.4,��
2023/08/31,08:00,0.556,0.839,0.512,1.050,0.761,0.329,0.590,0.544,��쓌,8.0,��
2023/08/31,08:10,0.556,0.839,0.513,1.049,0.759,0.328,0.589,0.543,��,6.7,��
2023/08/31,08:20,0.557,0.838,0.513,1.047,0.760,0.329,0.589,0.543,��쓌,7.3,��
2023/08/31,08:30,0.555,0.841,0.511,1.048,0.760,0.329,0.589,0.545,��쓌,7.5,��
2023/08/31,08:40,0.555,0.839,0.512,1.045,0.761,0.329,0.590,0.543,��쓌,9.4,��
2023/08/31,08:50,0.553,0.837,0.512,1.049,0.761,0.329,0.590,0.543,��쓌,8.9,��
2023/08/31,09:00,0.554,0.839,0.512,1.048,0.759,0.328,0.590,0.541,��쓌,10.5,��
2023/08/31,09:10,0.553,0.839,0.513,1.048,0.762,0.328,0.590,0.542,��쓌,12.2,��
2023/08/31,09:20,0.553,0.840,0.513,1.049,0.759,0.328,0.588,0.541,��쓌,10.6,��
2023/08/31,09:30,0.552,0.840,0.511,1.049,0.760,0.328,0.589,0.542,��쓌,9.8,��
2023/08/31,09:40,0.554,0.841,0.512,1.048,0.761,0.328,0.589,0.542,��쓌,11.0,��
2023/08/31,09:50,0.552,0.839,0.511,1.044,0.761,0.328,0.589,0.543,��쓌,11.1,��
2023/08/31,10:00,0.555,0.839,0.513,1.048,0.762,0.327,0.589,0.542,��쓌,11.6,��
2023/08/31,10:10,0.554,0.841,0.512,1.047,0.761,0.328,0.587,0.542,��쓌,11.0,��
2023/08/31,10:20,0.554,0.839,0.514,1.049,0.762,0.329,0.588,0.543,��쓌,9.3,��
2023/08/31,10:30,0.553,0.839,0.513,1.047,0.762,0.329,0.589,0.543,��쓌,11.7,��
2023/08/31,10:40,0.553,0.840,0.513,1.047,0.761,0.329,0.589,0.542,��쓌,13.5,��
2023/08/31,10:50,0.555,0.839,0.513,1.050,0.762,0.327,0.589,0.542,��쓌,12.7,��
2023/08/31,11:00,0.556,0.840,0.513,1.048,0.762,0.326,0.591,0.542,��쓌,11.3,��
2023/08/31,11:10,0.556,0.841,0.512,1.050,0.762,0.327,0.589,0.542,��쓌,12.5,��
2023/08/31,11:20,0.557,0.842,0.512,1.051,0.760,0.327,0.589,0.543,��쓌,11.0,��
2023/08/31,11:30,0.557,0.841,0.514,1.050,0.762,0.327,0.588,0.542,��쓌,10.2,��
2023/08/31,11:40,0.555,0.842,0.513,1.051,0.762,0.328,0.589,0.541,��쓌,11.6,��
2023/08/31,11:50,0.555,0.840,0.513,1.051,0.764,0.329,0.589,0.541,��쓌,12.4,��
2023/08/31,12:00,0.555,0.840,0.515,1.050,0.766,0.327,0.586,0.543,��쓌,13.0,��
2023/08/31,12:10,0.557,0.842,0.515,1.050,0.764,0.328,0.590,0.544,��쓌,12.4,��
2023/08/31,12:20,0.555,0.844,0.513,1.050,0.761,0.326,0.590,0.544,��쓌,13.0,��
2023/08/31,12:30,0.558,0.843,0.513,1.051,0.764,0.328,0.591,0.543,��쓌,14.1,��
2023/08/31,12:40,0.557,0.843,0.515,1.051,0.765,0.327,0.591,0.543,��쓌,11.3,��
2023/08/31,12:50,0.557,0.842,0.514,1.051,0.765,0.328,0.590,0.543,��쓌,11.4,��
2023/08/31,13:00,0.556,0.842,0.515,1.049,0.766,0.328,0.591,0.542,��쓌,13.8,��
2023/08/31,13:10,0.556,0.842,0.514,1.053,0.764,0.327,0.592,0.544,��쓌,11.3,��
2023/08/31,13:20,0.555,0.840,0.513,1.049,0.765,0.329,0.591,0.545,��쓌,12.4,��
2023/08/31,13:30,0.555,0.843,0.515,1.049,0.765,0.328,0.592,0.545,��쓌,11.7,��
2023/08/31,13:40,0.555,0.842,0.515,1.047,0.767,0.328,0.591,0.546,��쓌,10.0,��
2023/08/31,13:50,0.557,0.842,0.512,1.048,0.766,0.328,0.592,0.545,��쓌,10.0,��
2023/08/31,14:00,0.556,0.842,0.515,1.050,0.767,0.329,0.591,0.544,��쓌,9.8,��
2023/08/31,14:10,0.555,0.843,0.513,1.052,0.765,0.330,0.592,0.544,��,8.6,��
2023/08/31,14:20,0.556,0.841,0.515,1.052,0.766,0.329,0.592,0.544,��,10.0,��
2023/08/31,14:30,0.556,0.842,0.516,1.052,0.764,0.329,0.591,0.545,��쓌,11.6,��
2023/08/31,14:40,0.555,0.842,0.515,1.053,0.766,0.331,0.593,0.545,��,9.8,��
2023/08/31,14:50,0.556,0.840,0.517,1.051,0.763,0.330,0.591,0.544,��쓌,12.5,��
2023/08/31,15:00,0.555,0.841,0.517,1.052,0.764,0.330,0.591,0.542,��쓌,10.7,��
2023/08/31,15:10,0.557,0.844,0.516,1.050,0.765,0.330,0.590,0.544,��쓌,9.6,��
2023/08/31,15:20,0.556,0.844,0.515,1.048,0.765,0.329,0.591,0.543,��,10.0,��
2023/08/31,15:30,0.557,0.841,0.515,1.049,0.763,0.330,0.591,0.543,��,10.7,��
2023/08/31,15:40,0.557,0.842,0.516,1.050,0.765,0.330,0.590,0.543,��,10.6,��
2023/08/31,15:50,0.555,0.842,0.516,1.048,0.766,0.330,0.592,0.544,��,12.7,��
2023/08/31,16:00,0.556,0.843,0.517,1.051,0.764,0.328,0.589,0.543,��,11.4,��
2023/08/31,16:10,0.554,0.843,0.515,1.050,0.764,0.329,0.591,0.543,��,12.7,��
2023/08/31,16:20,0.557,0.844,0.515,1.052,0.763,0.328,0.590,0.541,��,11.3,��
2023/08/31,16:30,0.556,0.843,0.515,1.054,0.764,0.329,0.588,0.542,��쓌,10.7,��
2023/08/31,16:40,0.557,0.843,0.516,1.054,0.764,0.329,0.588,0.542,��,10.0,��
2023/08/31,16:50,0.555,0.843,0.514,1.055,0.765,0.329,0.590,0.542,��,9.6,��
2023/08/31,17:00,0.557,0.841,0.515,1.049,0.763,0.329,0.589,0.541,��,8.6,��
2023/08/31,17:10,0.555,0.841,0.513,1.052,0.764,0.328,0.589,0.542,��,11.1,��
2023/08/31,17:20,0.555,0.842,0.513,1.051,0.762,0.329,0.588,0.543,��,8.8,��
2023/08/31,17:30,0.556,0.839,0.514,1.051,0.760,0.328,0.589,0.545,��,9.7,��
2023/08/31,17:40,0.556,0.842,0.514,1.050,0.762,0.329,0.589,0.543,��,7.8,��
2023/08/31,17:50,0.556,0.841,0.513,1.050,0.763,0.329,0.589,0.542,��,8.9,��
2023/08/31,18:00,0.556,0.843,0.512,1.053,0.764,0.328,0.589,0.544,��쓌,8.1,��
2023/08/31,18:10,0.556,0.843,0.515,1.050,0.762,0.328,0.589,0.543,��,8.6,��
2023/08/31,18:20,0.555,0.842,0.514,1.050,0.762,0.329,0.590,0.544,��,8.0,��
2023/08/31,18:30,0.556,0.841,0.514,1.050,0.763,0.328,0.590,0.543,��,10.3,��
2023/08/31,18:40,0.558,0.841,0.514,1.051,0.764,0.329,0.588,0.542,��,9.0,��
2023/08/31,18:50,0.558,0.842,0.513,1.051,0.762,0.328,0.590,0.543,��,9.9,��
2023/08/31,19:00,0.557,0.842,0.514,1.051,0.761,0.330,0.589,0.544,��,7.7,��
2023/08/31,19:10,0.557,0.844,0.513,1.051,0.764,0.329,0.590,0.543,��,8.4,��
2023/08/31,19:20,0.557,0.844,0.513,1.049,0.764,0.329,0.590,0.543,��,7.8,��
2023/08/31,19:30,0.555,0.844,0.514,1.052,0.764,0.329,0.591,0.543,��,8.0,��
2023/08/31,19:40,0.556,0.843,0.515,1.050,0.764,0.330,0.589,0.543,��,8.1,��
2023/08/31,19:50,0.556,0.841,0.515,1.051,0.764,0.329,0.589,0.542,��,7.7,��
2023/08/31,20:00,0.556,0.844,0.513,1.051,0.764,0.330,0.591,0.543,��,7.4,��
2023/08/31,20:10,0.557,0.842,0.514,1.051,0.763,0.330,0.589,0.544,��,6.8,��
2023/08/31,20:20,0.557,0.843,0.515,1.051,0.763,0.330,0.589,0.542,��,6.7,��
2023/08/31,20:30,0.556,0.842,0.514,1.051,0.765,0.330,0.589,0.545,��,7.3,��
2023/08/31,20:40,0.556,0.843,0.516,1.049,0.765,0.329,0.590,0.544,��쓌,7.3,��
2023/08/31,20:50,0.558,0.844,0.514,1.052,0.764,0.329,0.589,0.543,��,7.3,��
2023/08/31,21:00,0.557,0.844,0.513,1.051,0.763,0.330,0.589,0.544,��,7.7,��
2023/08/31,21:10,0.558,0.844,0.515,1.049,0.763,0.328,0.590,0.544,��,9.0,��
2023/08/31,21:20,0.555,0.843,0.514,1.051,0.763,0.329,0.589,0.544,��,7.8,��
2023/08/31,21:30,0.557,0.843,0.515,1.051,0.765,0.330,0.590,0.543,��,7.4,��
2023/08/31,21:40,0.556,0.843,0.513,1.052,0.764,0.330,0.590,0.543,��,8.4,��
2023/08/31,21:50,0.558,0.844,0.516,1.050,0.763,0.329,0.590,0.544,��,9.8,��
2023/08/31,22:00,0.557,0.842,0.515,1.051,0.763,0.329,0.590,0.542,��,6.2,��
2023/08/31,22:10,0.557,0.845,0.513,1.050,0.765,0.329,0.589,0.541,��,8.1,��
2023/08/31,22:20,0.557,0.841,0.514,1.051,0.764,0.330,0.590,0.543,��,7.5,��
2023/08/31,22:30,0.556,0.843,0.514,1.049,0.763,0.329,0.590,0.542,��,7.0,��
2023/08/31,22:40,0.556,0.845,0.513,1.052,0.763,0.330,0.589,0.544,��,6.9,��
2023/08/31,22:50,0.555,0.845,0.514,1.051,0.763,0.330,0.590,0.543,��,7.0,��
2023/08/31,23:00,0.556,0.842,0.513,1.050,0.763,0.329,0.591,0.543,��,8.1,��
2023/08/31,23:10,0.556,0.843,0.514,1.051,0.762,0.328,0.588,0.544,��,9.0,��
2023/08/31,23:20,0.557,0.845,0.515,1.051,0.764,0.330,0.591,0.544,��,8.6,��
2023/08/31,23:30,0.556,0.846,0.515,1.051,0.763,0.328,0.590,0.544,��,8.7,��
2023/08/31,23:40,0.556,0.842,0.514,1.051,0.763,0.330,0.590,0.544,��,8.2,��
2023/08/31,23:50,0.555,0.843,0.514,1.050,0.763,0.329,0.590,0.544,��,7.5,��
